Weather History for KCBF - February, 2014

Change the Weather History Date:

Thursday, February 20, 2014

  Actual Average Record
Temperature  
Mean Temperature 32 °F -  
Max Temperature 41 °F 37 °F 60 °F (2011)
Min Temperature 24 °F 23 °F -4 °F (2008)
Degree Days  
Heating Degree Days 32    
Moisture  
Dew Point 29 °F    
Average Humidity 83    
Maximum Humidity 100    
Minimum Humidity 69    
Precipitation  
Precipitation 0.11 in - - ()
Sea Level Pressure  
Sea Level Pressure 29.58 in    
Wind  
Wind Speed 15 mph (NW)    
Max Wind Speed 30 mph    
Max Gust Speed 39 mph    
Visibility 9 miles    
Events Snow    
Averages and records for this station are not official NWS values.
T = Trace of Precipitation, MM = Missing Value Source: NWS Daily Summary

Daily Weather History Graph

Daily Weather History Graph

Search for Another Location

Airport or City:

Trip Planner

Search our weather history database for the weather conditions in past years. The results will help you decide how hot, cold, wet, or windy it might be!

Date:

Astronomy

Feb. 20, 2014 Rise Set
Actual Time 7:10 AM CST 6:03 PM CST
Civil Twilight 6:42 AM CST 6:31 PM CST
Nautical Twilight 6:10 AM CST 7:03 PM CST
Astronomical Twilight 5:38 AM CST 7:35 PM CST
Moon No Moon Rise 9:50 AM CST (2/20)
Length of Visible Light 11h 48m
Length of Day
10h 52m
Waning Gibbous, 70% of the Moon is Illuminated
Feb 20
Waning Gibbous
Feb 22
Last Quarter
Mar 1
New
Mar 8
First Quarter
Mar 16
Full

Hourly Weather History & Observations

Time (CST) Temp. Windchill Dew Point Humidity Pressure Visibility Wind Dir Wind Speed Gust Speed Precip Events Conditions
12:35 AM 41.0 °F 33.1 °F 35.6 °F 81% 29.56 in 10.0 mi SE 15.0 mph - N/A   Overcast
12:55 AM 41.0 °F 34.3 °F 35.6 °F 81% 29.56 in 10.0 mi SE 11.5 mph - N/A   Overcast
1:15 AM 41.0 °F 34.3 °F 37.4 °F 87% 29.55 in 10.0 mi SE 11.5 mph - N/A   Overcast
1:55 AM 41.0 °F 35.2 °F 37.4 °F 87% 29.54 in 10.0 mi SE 9.2 mph - N/A   Overcast
2:15 AM 41.0 °F 35.2 °F 37.4 °F 87% 29.54 in 10.0 mi SE 9.2 mph - N/A   Overcast
2:35 AM 39.2 °F 35.0 °F 37.4 °F 93% 29.54 in 10.0 mi SE 5.8 mph - N/A   Overcast
3:15 AM 39.2 °F 37.0 °F 37.4 °F 93% 29.53 in 10.0 mi SE 3.5 mph - N/A   Overcast
3:35 AM 39.2 °F - 37.4 °F 93% 29.52 in 10.0 mi Calm Calm - N/A   Overcast
3:55 AM 39.2 °F 35.0 °F 37.4 °F 93% 29.53 in 10.0 mi NNW 5.8 mph - N/A   Overcast
4:15 AM 39.2 °F 35.9 °F 37.4 °F 93% 29.53 in 10.0 mi NW 4.6 mph - N/A   Overcast
4:35 AM 39.2 °F 33.6 °F 37.4 °F 93% 29.53 in 10.0 mi NW 8.1 mph - N/A   Overcast
5:15 AM 39.2 °F 32.0 °F 37.4 °F 93% 29.48 in 10.0 mi North 11.5 mph - N/A   Overcast
5:35 AM 39.2 °F 33.0 °F 35.6 °F 87% 29.50 in 10.0 mi NNW 9.2 mph - N/A   Overcast
6:15 AM 39.2 °F - 35.6 °F 87% 29.53 in 10.0 mi Calm Calm - N/A   Overcast
7:55 AM 33.8 °F 24.3 °F 32.0 °F 93% 29.46 in 1.5 mi NNW 13.8 mph - 0.01 in Snow Light Snow
8:15 AM 33.8 °F 24.8 °F 33.8 °F 100% 29.45 in 0.8 mi NNW 12.7 mph - N/A Snow Light Snow
8:55 AM 33.8 °F 21.9 °F 33.8 °F 100% 29.41 in 2.0 mi North 21.9 mph 27.6 mph N/A   Overcast
9:35 AM 33.8 °F 22.2 °F 33.8 °F 100% 29.48 in 0.8 mi NNW 20.7 mph 32.2 mph N/A Snow Light Snow
9:55 AM 33.8 °F 22.8 °F 33.8 °F 100% 29.51 in 0.2 mi NW 18.4 mph 26.5 mph 0.04 in Snow Light Snow
10:15 AM 33.8 °F 21.9 °F 33.8 °F 100% 29.50 in 0.2 mi NNW 21.9 mph 33.4 mph N/A Snow Snow
10:35 AM 33.8 °F 20.3 °F 33.8 °F 100% 29.49 in - NNW 28.8 mph 39.1 mph N/A   Unknown
10:55 AM 33.8 °F 22.2 °F 33.8 °F 100% 29.48 in - NNW 20.7 mph 39.1 mph 0.02 in   Unknown
11:55 AM 33.8 °F 20.8 °F 33.8 °F 100% 29.46 in - NNW 26.5 mph 36.8 mph 0.04 in   Unknown
12:15 PM 33.8 °F 21.0 °F 33.8 °F 100% 29.47 in - NNW 25.3 mph 33.4 mph N/A   Unknown
1:15 PM 33.8 °F 21.3 °F 33.8 °F 100% 29.49 in - NW 24.2 mph 32.2 mph N/A   Unknown
1:35 PM 33.8 °F 22.8 °F 33.8 °F 100% 29.48 in - NNW 18.4 mph 29.9 mph N/A   Unknown
2:35 PM 35.6 °F 26.2 °F 33.8 °F 93% 29.52 in - WNW 15.0 mph 20.7 mph N/A   Unknown
5:15 PM 35.6 °F 24.8 °F 28.4 °F 75% 29.60 in 10.0 mi WNW 19.6 mph 32.2 mph N/A   Overcast
5:35 PM 35.6 °F 24.0 °F 26.6 °F 70% 29.61 in 10.0 mi WNW 23.0 mph 28.8 mph N/A   Overcast
5:55 PM 35.6 °F 24.2 °F 26.6 °F 70% 29.63 in 10.0 mi WNW 21.9 mph 31.1 mph N/A   Overcast
6:15 PM 33.8 °F 20.3 °F 24.8 °F 70% 29.64 in 10.0 mi WNW 28.8 mph 38.0 mph N/A   Overcast
6:35 PM 32.0 °F 17.6 °F 23.0 °F 69% 29.66 in 10.0 mi WNW 29.9 mph 35.7 mph N/A   Overcast
6:55 PM 32.0 °F 19.8 °F 23.0 °F 69% 29.67 in 10.0 mi NW 20.7 mph 36.8 mph N/A   Overcast
7:15 PM 30.2 °F 18.9 °F 21.2 °F 69% 29.68 in 10.0 mi WNW 16.1 mph 31.1 mph N/A   Overcast
7:35 PM 30.2 °F 17.8 °F 21.2 °F 69% 29.68 in 10.0 mi NW 19.6 mph 36.8 mph N/A   Overcast
7:55 PM 28.4 °F 14.4 °F 21.2 °F 74% 29.69 in 10.0 mi WNW 23.0 mph 36.8 mph N/A   Overcast
8:15 PM 28.4 °F 15.1 °F 19.4 °F 69% 29.69 in 10.0 mi NW 20.7 mph 34.5 mph N/A   Overcast
8:35 PM 28.4 °F 14.7 °F 21.2 °F 74% 29.69 in 10.0 mi NW 21.9 mph 29.9 mph N/A   Overcast
8:55 PM 28.4 °F 16.2 °F 19.4 °F 69% 29.70 in 10.0 mi NW 17.3 mph 35.7 mph N/A   Overcast
9:15 PM 28.4 °F 16.2 °F 19.4 °F 69% 29.71 in 10.0 mi NW 17.3 mph 32.2 mph N/A   Overcast
9:35 PM 28.4 °F 15.8 °F 19.4 °F 69% 29.70 in 10.0 mi NW 18.4 mph 29.9 mph N/A   Overcast
9:55 PM 26.6 °F 12.0 °F 17.6 °F 69% 29.71 in 10.0 mi NW 23.0 mph 34.5 mph N/A   Overcast
10:15 PM 26.6 °F 12.4 °F 17.6 °F 69% 29.70 in 10.0 mi NW 21.9 mph 31.1 mph N/A   Overcast
10:35 PM 26.6 °F 13.1 °F 17.6 °F 69% 29.70 in 10.0 mi NW 19.6 mph 29.9 mph N/A   Overcast
10:55 PM 26.6 °F 12.0 °F 17.6 °F 69% 29.70 in 10.0 mi NW 23.0 mph 34.5 mph N/A   Overcast
11:15 PM 24.8 °F 10.0 °F 15.8 °F 69% 29.71 in 10.0 mi NW 21.9 mph 31.1 mph N/A   Overcast
11:35 PM 24.8 °F 11.1 °F 15.8 °F 69% 29.71 in 10.0 mi NW 18.4 mph 31.1 mph N/A   Partly Cloudy
11:55 PM 24.8 °F 10.3 °F 15.8 °F 69% 29.71 in 10.0 mi WNW 20.7 mph 33.4 mph N/A   Clear